YAOGAN-35 02A

导读

YAOGAN-35 02A(遥感三十五号02A星)是中国于2022年6月23日在西昌卫星发射中心,通过长征二号丁运载火箭成功发射入轨的遥感卫星,由中国航天科技集团有限公司中国空间技术研究院抓总研制。该卫星主要服务于科学实验、国土资源普查、农作物估产及防灾减灾等领域,是中国遥感卫星体系的重要组成部分,助力提升中国对地观测与灾害应对能力。

Basic Information
目录编号:
52907
目录名称:
YAOGAN-35 02A
国际标识:
2022-068A
轨道中心:
EARTH
卫星名称:
YAOGAN-35 02A
卫星全名:
--
卫星状态:
在轨 (已飞行1535 天)
发射日期:
2022-06-23 UTC
国别 :
中国 (CN)
星等 :
--
Orbit Information
数据来源 国际轨道数据 AOE轨道数据
星历时间 2026-09-05T02:14:17+0800
6小时前
查看轨道信息
2026-08-30T03:00:00+0800
6天前
查看轨道信息
半长轴 6868.819km 6869.109km
偏心率 0.0010462 0.0010838
轨道倾角 34.993° 34.992°
近地点辐角 78.483° 18.673°
升交点赤经 356.830° 34.485°
平近点角 281.706° 281.589°
近地点 483.495km 483.527km
远地点 497.869km 498.417km
周期 94.424分钟 94.430分钟
每日圈数 15.250347 15.249382
Detailed Information
使用方式:
暂无
2D Orbit Map
3D Orbit Map
Orbit Altitude Analysis Chart
Orbit Inclination Analysis Chart
Orbit Comprehensive Analysis Chart
View Comprehensive Chart
Conjunction Data List
Event ID Objects TCA Miss Dist (km) Collision Risk Probability Collision Risk Index (CRI) Action
CDM_260905-180305-290705-778423
2026-09-05T
18:03:05+0000
0.656 km
远距离
6.317604E-5 中风险 0.71
CDM_260906-205405-290705-792422
2026-09-06T
20:54:31+0000
0.842 km
远距离
1.82549E-5 中风险 0.6
CDM_260905-114405-290705-641325
2026-09-05T
11:44:55+0000
1.127 km
极远距离
1.099408E-5 中风险 0.56
CDM_260907-111705-290705-940222
2026-09-07T
11:17:27+0000
1.388 km
极远距离
6.050001E-6 低风险 0.51
CDM_260906-050005-290706-197521
2026-09-06T
05:00:44+0000
1.398 km
极远距离
5.44767E-6 低风险 0.5
CDM_260906-021405-290706-703123
2026-09-06T
02:14:37+0000
1.405 km
极远距离
5.434242E-6 低风险 0.5
CDM_260905-181405-290705-955123
2026-09-05T
18:14:36+0000
1.311 km
极远距离
4.752057E-6 低风险 0.49
CDM_260906-064905-290706-348421
2026-09-06T
06:49:32+0000
1.339 km
极远距离
3.023014E-6 低风险 0.45
CDM_260907-124205-290705-956422
2026-09-07T
12:42:30+0000
1.601 km
极远距离
2.900772E-6 低风险 0.44
CDM_260829-192905-290706-795522
2026-08-29T
19:29:08+0000
1.920 km
极远距离
2.066193E-6 低风险 0.41